User: anonymous   Login
Location: Unspecified
(0.0000°N, 0.0000°E)
Time: 21:59:38
(UTC+02:00)
Language:

Cosmos 1953 Rocket - Orbit

View from above orbital plane
View from above orbital plane
View from above satellite
View from above satellite

Ground track
Ground track

The orbit data is extracted from the following two-line orbital elements,

1 19211U 88050B   15242.12589416  .00000213  00000-0  23236-4 0  9991
2 19211 082.5246 096.8813 0023282 120.2920 357.0147 14.82787423469418
Epoch (UTC): 30 August 2015 03:01:17
Eccentricity: 0.0023282
inclination: 82.5246°
perigee height: 604 km
apogee height: 637 km
right ascension of ascending node: 96.8813°
argument of perigee: 120.2920°
revolutions per day: 14.82787423
mean anomaly at epoch: 357.0147°
orbit number at epoch: 46941

The dashed part of the orbit path shows where the satellite is in the earth's shadow,  

DLR